Temperature
16 16 17 17 14 12 13 14 15 16 17 19 20 19 17 17 18 19 20 20 19 19 17 15 14 14 13 13 13 13 13 13 13 13 12 12 12 12 12 12 12 12 12 11 11 11 11 11 11
16 16 17 16 13 13 13 14 15 16 19 19 19 19 19 19 20 20 20 20 19 18 17 15 14 14 14 13 13 13 13 13 12 12 12 12 12 12 11 11 11 11 11 12 12 11 11 11 11
16 16 17 12 12 13 15 15 15 17 19 19 19 20 20 20 21 21 21 20 19 18 17 15 14 14 14 13 13 13 12 12 12 12 12 12 12 11 11 11 11 11 11 12 12 11 11 11 11
16 16 15 12 13 13 14 16 16 17 19 19 19 19 20 20 21 21 21 20 19 18 16 15 14 14 14 13 13 13 12 12 12 12 12 11 11 11 11 11 11 12 11 11 11 11 11 11 11
16 16 13 12 13 14 13 15 17 17 18 19 19 18 19 20 21 21 20 20 19 18 16 15 15 14 14 13 13 13 12 12 12 12 12 11 11 11 12 12 12 11 11 11 11 11 11 11 11
16 12 12 12 13 14 14 17 17 17 17 18 19 18 20 20 20 20 20 19 19 18 16 15 14 14 14 13 13 13 12 12 12 12 11 11 11 12 12 12 11 11 11 11 11 11 11 10 10
14 11 12 13 13 14 16 18 17 17 17 19 20 18 19 20 20 20 19 19 18 17 16 15 14 14 14 13 13 13 13 12 12 12 12 12 12 11 11 11 11 11 11 11 11 10 10 10 10
15 12 13 12 13 15 17 18 19 19 18 20 20 18 19 21 20 19 18 18 17 16 16 15 15 14 14 13 13 13 13 12 12 12 12 12 12 11 11 11 11 11 11 10 10 10 10 10 9
15 11 12 13 13 15 17 17 19 19 19 19 20 20 21 21 20 19 18 17 16 16 16 15 15 14 14 13 13 13 12 12 12 12 12 12 12 11 11 11 11 10 10 10 10 10 10 9 9
13 11 12 14 14 16 17 17 18 18 18 18 19 20 20 20 20 19 19 18 17 17 16 16 15 15 14 14 13 13 12 12 12 12 12 12 11 11 11 11 11 10 10 10 10 9 9 9 9
11 12 13 14 16 16 16 17 18 17 17 18 20 20 20 20 20 20 20 20 20 19 17 17 16 15 14 14 13 13 13 12 12 12 12 11 11 11 11 10 10 10 10 9 9 9 9 9 9
11 12 14 15 17 17 17 17 17 17 19 20 20 21 21 20 20 20 20 20 19 19 18 17 16 15 15 14 14 14 13 13 12 12 12 11 11 11 11 10 10 10 9 9 9 9 9 9 9
12 13 14 15 16 16 16 16 17 17 19 19 20 20 20 20 21 21 21 20 20 19 18 18 17 16 15 15 14 14 13 13 13 12 12 11 11 11 10 10 10 9 9 9 9 9 9 9 9
12 13 14 15 15 16 15 15 15 17 19 19 19 20 20 20 21 20 19 20 20 19 19 18 17 17 16 15 15 14 14 13 13 12 12 11 11 11 10 10 10 9 9 9 9 9 9 9 9
14 13 13 13 14 15 15 14 14 18 18 18 19 19 19 20 20 20 20 20 20 20 19 18 18 17 16 15 15 15 14 13 13 13 12 11 11 10 10 10 10 9 9 9 9 9 9 9 9
12 12 12 13 13 14 14 13 14 18 17 17 18 18 19 19 19 20 20 20 20 20 19 19 18 17 16 16 15 15 14 14 13 13 12 11 11 10 10 10 10 9 9 9 9 9 9 9 9
11 11 11 13 13 13 13 13 14 17 16 16 17 18 18 19 19 19 19 20 20 20 19 19 18 18 17 16 15 14 14 14 13 13 12 12 11 11 10 10 9 9 9 9 9 9 9 9 9
10 10 11 12 13 13 12 12 14 16 15 16 17 18 18 19 19 20 20 19 19 19 19 19 18 18 17 16 14 13 13 13 13 13 12 12 11 11 10 10 9 9 9 9 9 9 9 9 9
11 11 11 12 13 13 12 13 14 14 14 14 15 16 18 19 20 20 20 19 19 19 19 18 18 18 17 15 15 14 14 14 13 13 12 12 11 11 10 10 10 9 9 9 9 9 9 9 8
11 11 11 12 13 13 12 12 13 13 13 15 15 16 18 19 19 20 20 19 19 19 19 19 19 18 17 17 17 16 15 14 13 13 12 12 11 11 10 10 10 9 9 9 9 9 9 9 8
11 11 11 12 12 13 13 12 12 13 13 15 16 17 18 19 19 20 20 20 20 19 19 19 19 19 18 18 16 15 13 12 12 12 12 12 11 11 10 10 10 10 9 9 9 9 9 9 9
11 11 11 12 12 11 12 10 11 12 13 13 14 16 17 19 19 20 20 20 20 20 20 19 19 19 19 18 17 16 14 14 14 14 13 12 12 11 11 10 10 10 9 9 9 9 9 9 9
11 11 11 11 11 10 11 10 10 11 12 13 13 16 18 19 19 20 20 20 20 20 20 20 19 19 19 18 17 17 16 16 15 14 13 12 11 11 11 10 10 10 10 9 9 9 9 9 9
11 11 11 10 10 10 10 10 10 10 12 13 14 16 18 19 19 19 19 20 20 20 20 20 19 19 19 18 17 17 17 16 15 14 13 12 12 11 11 10 10 10 10 9 9 9 9 9 9
11 10 9 9 9 9 10 10 11 11 12 13 14 16 18 18 19 19 19 19 19 20 19 19 19 19 19 18 17 17 17 16 15 15 14 13 12 11 11 10 10 10 10 10 9 9 9 9 9
10 10 9 10 9 9 9 10 11 12 12 13 15 16 17 18 18 19 19 19 19 19 19 19 19 19 18 18 17 16 16 15 15 14 14 13 13 12 12 11 10 10 10 10 9 9 9 9 8
9 10 10 10 9 9 8 9 9 11 11 11 12 14 15 17 18 18 19 19 19 19 19 19 18 18 18 17 16 16 15 15 14 14 13 13 12 12 11 11 10 10 10 10 9 9 9 9 8
10 10 9 9 9 9 9 8 10 12 12 12 12 12 15 17 18 18 18 18 18 18 18 18 18 17 17 16 16 15 15 14 14 13 13 12 12 11 11 11 10 10 10 10 9 9 9 8 8
9 9 9 9 9 9 9 10 11 12 13 13 13 14 16 17 18 18 18 18 18 18 18 17 17 17 16 16 15 15 14 13 13 12 12 12 11 11 11 10 10 10 9 9 9 9 9 8 8
9 9 9 9 8 8 9 10 12 12 12 13 13 15 16 17 17 17 17 17 17 17 17 17 16 16 16 15 15 14 13 12 12 12 11 11 11 10 10 10 10 9 9 9 9 9 8 8 8
Wind_Speed
3 3 3 4 5 3 5 7 5 4 5 3 3 6 9 8 7 4 2 12 12 14 19 21 23 22 21 20 19 17 15 15 14 13 13 13 13 13 13 13 14 14 14 14 14 13 14 14 14
1 2 4 5 4 2 7 7 7 8 5 3 3 4 5 5 2 5 6 10 13 16 18 20 23 23 22 21 19 18 16 15 15 14 13 13 13 13 13 13 13 14 14 14 14 13 13 13 13
2 3 4 4 5 7 7 6 9 5 4 3 2 2 5 5 5 8 7 12 13 14 16 21 25 24 23 22 20 19 17 16 15 14 13 13 13 13 13 13 13 14 14 13 13 13 13 12 13
3 4 5 3 7 8 7 5 3 2 2 4 4 3 2 1 6 7 11 14 15 12 15 21 25 24 23 22 21 19 18 16 15 14 14 13 13 13 12 13 13 13 13 12 12 12 12 12 12
4 4 1 4 8 7 7 7 5 4 4 4 6 5 2 3 4 9 15 15 17 13 14 19 24 24 23 23 22 20 19 17 16 14 14 13 13 13 12 12 12 12 12 11 11 11 11 11 11
4 4 3 7 9 7 7 6 5 5 5 4 7 7 4 2 6 10 13 13 13 13 13 18 24 24 23 23 22 21 19 18 16 15 14 13 13 13 12 12 11 11 10 10 10 10 10 10 10
5 5 6 6 6 7 6 6 7 7 7 8 9 8 3 3 6 10 10 10 10 10 10 13 19 22 23 23 22 21 20 18 17 16 15 14 13 12 12 11 10 10 9 9 9 8 8 8 8
6 5 5 5 6 7 4 4 5 8 7 4 9 10 7 7 10 11 10 9 10 9 9 9 13 17 19 20 22 21 20 19 18 16 15 14 13 12 12 10 10 9 8 8 7 7 7 7 7
5 4 7 8 8 6 3 2 2 3 5 4 4 4 2 15 17 15 11 9 11 12 9 8 9 13 16 17 20 21 20 19 18 17 16 14 11 11 11 10 9 8 7 7 6 6 6 6 6
6 8 11 7 7 5 3 3 3 2 3 3 2 3 9 17 19 19 18 19 19 18 14 10 10 11 14 15 17 17 17 17 16 16 16 14 12 11 11 9 8 7 6 5 5 5 6 6 6
8 9 8 8 7 4 3 4 3 4 5 8 9 9 14 15 16 18 19 19 20 18 16 14 12 11 12 10 12 13 14 14 15 17 17 15 13 11 10 8 6 5 5 4 4 5 6 5 5
8 8 8 6 6 6 5 4 4 7 9 6 7 12 16 19 20 20 20 18 15 15 17 15 13 12 12 11 10 11 11 12 12 15 17 14 10 8 8 6 5 4 4 4 3 3 3 3 3
11 7 8 9 8 7 6 7 6 8 8 3 4 12 17 20 20 18 14 12 13 16 17 16 16 15 13 11 10 11 10 12 14 15 17 16 11 7 7 7 6 5 5 4 3 2 2 2 3
9 10 10 8 9 6 8 9 6 10 5 3 7 13 16 19 19 13 11 14 16 17 18 17 18 17 14 13 11 10 12 13 15 15 17 18 15 11 8 6 6 6 6 5 4 3 2 2 2
6 7 9 10 9 7 6 11 11 11 6 7 9 11 13 15 13 15 17 18 19 18 17 18 18 18 17 15 12 11 13 14 13 15 17 18 16 14 11 6 6 7 7 6 4 3 3 2 2
5 7 10 9 10 9 9 15 11 9 9 11 11 10 11 13 13 14 14 14 14 14 16 18 17 19 19 16 13 11 13 14 13 15 17 18 18 16 12 7 6 9 8 6 4 2 2 1 1
7 9 12 9 9 8 11 11 10 9 10 12 11 11 12 13 13 13 13 13 14 15 17 18 18 20 20 17 13 11 11 12 13 15 16 17 18 18 13 9 9 10 7 5 4 2 2 2 1
11 9 9 11 7 10 11 11 10 6 10 12 11 11 11 13 17 15 15 14 13 14 15 17 18 18 17 14 11 9 10 11 12 14 15 18 18 18 15 10 10 10 6 4 4 3 2 2 2
9 9 10 8 7 9 13 14 14 11 9 11 11 11 12 15 14 12 13 13 12 13 15 18 19 18 16 15 15 15 15 13 12 11 16 19 18 18 15 9 8 8 7 7 7 4 3 2 2
12 12 10 6 6 8 8 12 12 12 11 11 13 14 14 13 11 11 11 12 14 16 18 19 20 20 19 18 17 14 11 9 9 8 12 18 19 18 16 11 8 8 7 7 7 5 4 2 2
18 17 14 7 1 3 3 8 10 9 9 10 11 12 12 15 15 13 12 13 14 16 18 18 21 21 22 19 11 8 6 5 8 11 12 14 18 19 17 15 11 9 9 8 8 8 7 4 2
22 16 12 10 6 6 5 7 9 9 9 11 13 13 13 14 14 13 12 12 14 17 16 18 19 20 20 18 17 18 15 14 15 11 12 12 16 17 17 16 13 10 9 9 9 8 6 6 4
10 11 12 11 10 8 6 7 9 6 10 13 14 15 15 14 14 14 13 13 13 13 13 15 16 17 18 20 21 21 17 13 9 8 12 12 12 14 16 15 13 11 9 10 10 8 7 5 5
6 6 5 6 7 15 16 10 9 8 12 10 11 13 14 14 13 12 11 9 9 9 10 11 14 16 17 20 20 21 19 14 13 12 14 12 9 10 13 13 12 11 10 10 10 10 10 7 6
12 9 7 8 10 12 11 11 12 11 11 13 14 14 12 11 10 10 10 10 9 9 10 11 14 15 17 19 20 21 19 18 18 16 15 13 10 9 13 12 12 11 10 10 9 9 9 9 8
18 16 11 9 8 6 7 12 10 11 11 11 12 11 9 10 10 10 10 10 10 10 10 11 13 14 16 18 18 17 16 14 12 14 13 14 13 13 14 14 13 12 12 11 10 8 8 8 8
14 15 8 4 3 4 7 7 9 7 9 10 11 10 12 11 10 10 9 9 9 9 10 12 13 12 14 16 15 15 16 15 14 13 12 12 10 10 13 14 13 12 12 11 11 8 8 8 8
10 10 8 8 8 8 6 7 7 8 12 13 12 12 13 10 9 9 8 8 7 7 7 8 10 11 12 13 14 13 14 15 13 12 13 12 11 11 13 13 12 12 11 11 11 9 8 9 7
10 11 8 7 5 7 6 8 9 13 14 14 15 12 12 11 10 9 7 6 6 6 7 8 8 9 10 11 12 12 12 12 12 12 13 12 11 12 14 14 13 13 12 12 11 9 10 10 8
9 10 10 10 7 6 5 8 6 11 10 10 12 11 9 9 8 7 6 6 6 7 7 8 8 9 9 10 10 11 11 12 12 12 12 12 12 13 13 13 13 13 12 12 12 12 11 11 10
Wind_Direction
1 57 80 61 59 54 239 240 227 242 227 216 171 162 168 172 173 198 133 147 143 154 168 170 163 159 154 149 144 141 138 135 131 128 124 120 116 112 107 103 99 95 92 89 88 87 87 84 81
82 101 61 67 109 223 254 238 226 225 210 120 102 127 150 197 186 140 146 166 151 156 165 166 164 159 155 150 146 144 143 140 135 132 129 126 121 116 111 107 103 99 95 92 91 90 90 87 84
117 60 93 98 162 201 235 230 227 245 218 190 155 178 179 183 174 178 179 158 148 156 163 166 163 160 157 153 150 148 146 143 140 137 133 129 124 119 113 110 106 102 99 96 94 93 92 90 87
94 54 64 119 226 227 227 243 211 228 228 203 163 159 224 349 179 176 151 152 150 156 162 167 164 162 159 156 154 152 150 148 145 142 138 133 129 123 117 114 109 106 103 101 97 95 93 92 89
66 92 139 242 242 245 241 248 226 221 210 192 158 163 183 17 98 132 147 155 156 157 161 169 167 165 162 160 158 156 155 153 150 147 143 139 134 127 123 119 115 111 108 104 99 97 95 92 90
74 90 167 235 247 259 254 227 198 216 210 188 161 161 185 95 129 146 151 154 157 157 160 170 171 168 165 164 162 160 159 157 155 152 149 143 138 135 131 127 123 118 112 107 102 100 97 92 89
138 146 207 224 251 263 248 197 195 204 210 205 172 158 224 166 157 143 140 141 148 154 159 171 173 171 170 168 165 164 163 161 159 157 153 149 145 143 139 134 129 123 116 110 106 103 99 94 90
156 156 212 218 226 253 246 205 206 187 213 181 154 160 204 183 143 129 125 135 148 157 164 171 170 168 168 169 168 167 166 165 163 161 156 152 151 150 145 141 137 131 125 119 112 105 99 92 88
130 163 217 212 205 239 251 240 250 187 155 164 191 187 196 135 137 136 140 153 166 174 178 174 168 166 166 167 171 169 169 169 167 163 158 154 153 149 144 146 148 143 135 128 117 106 95 85 75
163 208 221 211 201 220 255 234 228 143 168 187 164 70 119 142 152 159 167 174 181 185 187 182 174 168 166 170 171 170 169 170 167 162 158 155 152 148 148 157 160 153 143 133 116 99 82 72 63
190 214 221 228 226 233 252 253 212 171 214 211 197 173 154 160 167 174 180 183 186 185 186 186 181 173 171 170 168 168 167 165 163 161 159 157 154 152 153 160 164 153 138 115 95 75 69 66 58
209 230 220 223 215 226 234 246 235 203 227 231 208 166 166 172 180 186 188 188 183 183 190 187 184 180 178 173 172 169 167 167 165 166 163 158 155 156 159 163 165 156 147 129 104 89 76 63 53
224 240 229 230 234 236 244 242 240 242 249 262 154 157 179 184 191 195 191 182 181 188 191 190 188 187 183 178 177 177 175 173 171 170 170 168 165 166 168 171 173 175 170 159 145 131 92 67 48
222 227 241 239 233 227 230 249 227 247 232 193 173 182 193 196 196 186 180 185 191 194 194 191 193 191 187 187 185 183 180 176 174 176 177 176 175 174 172 172 177 186 187 180 169 158 132 98 64
215 230 253 239 224 222 209 257 230 234 210 209 207 205 206 211 202 196 195 194 195 196 193 193 195 193 193 193 189 185 183 180 181 182 181 181 181 180 177 174 182 193 189 176 157 139 120 101 80
193 212 239 237 205 202 183 247 247 224 201 217 219 215 216 220 213 212 206 202 196 190 192 195 195 197 198 197 192 189 186 185 186 185 185 185 185 184 179 178 188 191 181 169 151 136 123 108 91
204 213 223 235 204 183 192 238 246 219 199 219 222 218 219 224 225 222 213 207 197 193 192 193 195 198 199 198 193 189 186 189 189 187 187 190 189 186 182 185 189 181 170 167 158 137 142 141 122
203 206 210 213 205 184 208 235 250 228 200 220 226 223 221 223 227 221 214 209 202 196 194 195 197 199 197 194 190 188 189 193 191 191 192 190 191 189 185 186 183 174 164 163 157 144 125 125 129
197 198 214 217 198 187 219 236 245 241 218 229 232 228 225 227 232 226 216 208 200 196 195 196 197 197 191 193 195 197 201 198 197 196 193 191 191 189 186 185 178 175 177 176 164 145 141 125 123
215 220 224 236 208 201 231 245 246 238 224 222 225 226 225 228 235 229 218 208 203 201 200 200 199 196 193 197 199 200 195 194 195 191 193 193 192 190 190 185 183 180 175 169 166 154 142 134 136
219 218 216 213 194 223 248 274 253 248 227 230 229 227 225 223 227 227 219 212 206 206 204 203 201 198 197 194 184 171 158 156 182 195 198 197 194 192 190 189 184 181 177 181 179 171 159 161 152
226 218 211 215 219 241 206 261 259 243 246 236 234 231 230 228 226 224 218 215 210 211 206 204 201 198 195 187 184 184 191 197 199 195 195 191 193 192 191 188 185 183 182 181 182 175 167 154 162
219 193 205 217 224 246 227 240 265 239 242 242 236 233 232 230 226 226 219 215 214 208 202 202 198 196 191 188 190 192 198 199 184 172 180 187 191 192 191 189 186 185 186 183 177 173 173 168 164
178 156 191 213 216 239 228 222 259 219 219 231 232 231 231 230 228 229 224 212 208 197 193 191 191 193 189 190 191 195 196 186 174 178 186 189 188 190 191 188 187 186 185 184 182 179 177 177 168
189 173 193 204 214 235 204 211 244 221 215 217 226 231 231 226 224 223 216 206 198 189 187 185 187 191 189 190 193 197 196 189 187 186 188 186 186 191 193 188 188 187 186 182 175 176 179 177 174
198 189 198 198 203 226 184 219 242 226 221 225 232 235 233 227 220 216 209 202 197 191 185 183 186 190 188 191 195 195 192 192 193 188 186 189 193 193 188 187 188 186 181 177 174 175 179 177 179
190 200 194 181 181 198 220 252 287 245 238 233 234 232 232 227 218 213 207 198 192 187 186 185 185 186 189 192 191 191 191 191 190 186 184 188 189 183 181 184 183 181 179 176 173 179 177 174 180
190 174 174 195 190 218 232 232 230 212 216 223 224 223 225 219 213 210 204 197 190 186 180 175 181 185 187 188 189 191 191 191 186 181 183 184 180 175 176 180 180 179 177 176 175 175 173 173 177
180 185 182 187 199 189 220 246 217 205 205 210 216 217 216 211 207 204 199 190 176 166 166 167 172 174 179 184 184 183 185 183 180 182 184 181 176 175 179 180 178 178 179 177 177 177 172 174 174
187 184 179 192 204 196 204 256 239 213 216 210 215 216 213 209 201 193 185 170 166 167 167 169 170 174 179 178 177 180 177 175 178 181 180 175 176 178 179 176 177 179 179 178 178 177 177 178 181
Height
1499 1500 1501 1503 1507 1517 1516 1505 1499 1495 1492 1489 1488 1490 1492 1494 1499 1501 1495 1495 1498 1501 1505 1509 1513 1517 1520 1522 1524 1526 1528 1529 1531 1532 1533 1534 1535 1537 1538 1539 1539 1539 1540 1540 1541 1541 1542 1542 1543
1499 1500 1502 1503 1512 1520 1514 1500 1495 1490 1487 1487 1487 1488 1489 1489 1490 1491 1492 1494 1498 1501 1504 1508 1512 1516 1519 1522 1524 1526 1528 1529 1531 1532 1533 1535 1536 1537 1538 1539 1540 1540 1540 1541 1541 1542 1542 1543 1543
1498 1499 1501 1504 1512 1513 1503 1492 1489 1486 1486 1486 1486 1487 1487 1487 1488 1490 1492 1494 1497 1501 1504 1507 1512 1515 1518 1521 1524 1526 1528 1529 1531 1532 1534 1535 1536 1537 1538 1539 1540 1540 1541 1542 1542 1543 1543 1543 1544
1498 1500 1500 1506 1506 1500 1493 1486 1485 1485 1485 1484 1485 1486 1486 1487 1488 1490 1491 1494 1497 1500 1504 1507 1511 1515 1518 1521 1523 1526 1528 1529 1531 1533 1534 1535 1537 1538 1539 1540 1540 1541 1542 1542 1543 1543 1544 1544 1545
1497 1497 1502 1506 1500 1492 1486 1483 1484 1484 1483 1482 1483 1484 1484 1486 1488 1489 1492 1494 1497 1500 1504 1507 1511 1514 1518 1520 1523 1525 1527 1529 1531 1533 1534 1536 1537 1538 1539 1540 1541 1542 1543 1543 1544 1544 1545 1545 1546
1495 1496 1505 1504 1495 1487 1483 1480 1481 1481 1481 1481 1482 1483 1483 1485 1487 1490 1492 1494 1498 1500 1503 1507 1511 1514 1517 1520 1522 1525 1527 1529 1531 1533 1534 1536 1537 1538 1539 1540 1541 1542 1543 1544 1545 1545 1546 1546 1546
1493 1497 1499 1497 1492 1486 1479 1477 1478 1478 1478 1478 1479 1481 1482 1484 1487 1490 1492 1495 1498 1501 1504 1507 1510 1514 1517 1519 1522 1524 1526 1529 1531 1532 1534 1536 1537 1538 1540 1541 1542 1543 1544 1544 1545 1546 1546 1547 1547
1488 1493 1493 1493 1489 1483 1475 1474 1472 1473 1474 1475 1477 1478 1479 1482 1485 1488 1492 1495 1498 1501 1503 1506 1509 1513 1516 1518 1521 1523 1526 1528 1530 1532 1534 1535 1537 1538 1540 1541 1542 1543 1544 1545 1545 1546 1547 1547 1547
1485 1492 1491 1486 1484 1478 1472 1472 1471 1471 1472 1473 1474 1475 1476 1479 1482 1486 1490 1493 1496 1499 1502 1505 1508 1511 1514 1517 1520 1522 1525 1527 1529 1531 1533 1535 1536 1538 1540 1541 1542 1543 1544 1545 1546 1546 1547 1547 1548
1481 1485 1479 1475 1474 1472 1471 1470 1470 1470 1470 1471 1472 1473 1474 1477 1479 1482 1485 1488 1492 1495 1499 1502 1506 1509 1512 1515 1518 1521 1523 1526 1528 1530 1532 1534 1536 1538 1539 1541 1542 1543 1544 1545 1546 1547 1547 1548 1548
1474 1474 1470 1469 1469 1469 1469 1469 1468 1469 1469 1467 1467 1469 1471 1475 1477 1479 1482 1484 1487 1492 1496 1499 1503 1507 1510 1513 1516 1519 1521 1524 1526 1529 1531 1533 1535 1537 1538 1540 1541 1543 1544 1545 1546 1546 1547 1548 1548
1470 1466 1465 1465 1466 1467 1467 1466 1466 1466 1465 1465 1466 1467 1467 1470 1473 1476 1479 1482 1486 1489 1493 1497 1500 1504 1508 1511 1514 1517 1519 1522 1524 1527 1529 1532 1534 1536 1538 1539 1541 1542 1544 1545 1546 1547 1547 1548 1548
1465 1462 1461 1462 1463 1464 1464 1464 1463 1462 1462 1463 1463 1464 1465 1467 1469 1473 1476 1480 1483 1487 1490 1494 1497 1501 1504 1508 1511 1514 1517 1520 1523 1525 1528 1530 1532 1535 1537 1538 1540 1542 1543 1544 1545 1546 1547 1547 1548
1457 1458 1458 1458 1459 1460 1461 1459 1461 1457 1459 1460 1460 1461 1462 1464 1466 1469 1473 1477 1480 1483 1487 1490 1494 1498 1501 1504 1508 1511 1514 1517 1520 1523 1526 1528 1531 1533 1535 1537 1539 1540 1542 1543 1545 1546 1546 1547 1547
1454 1456 1455 1453 1454 1455 1458 1457 1454 1453 1455 1456 1457 1458 1459 1461 1463 1465 1468 1472 1476 1480 1483 1487 1490 1494 1498 1501 1504 1508 1511 1514 1517 1520 1523 1526 1529 1531 1534 1536 1538 1539 1541 1542 1544 1545 1545 1546 1546
1452 1455 1455 1447 1448 1450 1458 1454 1447 1448 1450 1451 1452 1454 1455 1457 1459 1462 1465 1469 1473 1476 1480 1483 1487 1490 1494 1497 1501 1504 1508 1511 1514 1518 1521 1523 1526 1529 1531 1534 1536 1538 1540 1541 1542 1543 1544 1545 1545
1451 1453 1450 1446 1443 1445 1450 1448 1441 1442 1444 1445 1447 1448 1450 1452 1455 1458 1461 1464 1468 1472 1475 1479 1482 1486 1489 1493 1497 1501 1504 1507 1511 1514 1517 1520 1523 1526 1529 1531 1534 1536 1538 1539 1541 1542 1543 1544 1544
1445 1447 1444 1443 1438 1441 1445 1443 1438 1437 1439 1440 1441 1443 1445 1446 1449 1452 1456 1459 1463 1467 1471 1474 1477 1481 1485 1489 1493 1497 1500 1503 1506 1510 1513 1517 1520 1523 1526 1529 1531 1533 1535 1537 1539 1540 1541 1542 1542
1436 1439 1439 1437 1434 1438 1439 1438 1434 1433 1435 1435 1435 1436 1438 1440 1444 1447 1450 1454 1457 1461 1464 1468 1471 1475 1479 1483 1486 1490 1493 1496 1500 1504 1509 1513 1516 1519 1522 1525 1528 1530 1533 1535 1536 1538 1539 1540 1541
1432 1435 1436 1434 1432 1434 1436 1434 1429 1427 1427 1427 1428 1429 1431 1434 1437 1440 1444 1447 1450 1453 1457 1460 1464 1468 1472 1475 1479 1483 1487 1491 1495 1500 1504 1508 1512 1515 1518 1521 1524 1527 1530 1532 1533 1535 1537 1538 1539
1425 1429 1432 1433 1431 1431 1433 1433 1426 1420 1420 1420 1420 1421 1423 1426 1429 1432 1436 1439 1442 1445 1449 1453 1456 1460 1464 1468 1473 1478 1483 1487 1491 1494 1497 1502 1506 1510 1514 1517 1521 1523 1526 1528 1530 1532 1534 1535 1536
1418 1419 1426 1430 1434 1436 1435 1439 1425 1418 1415 1414 1413 1413 1415 1418 1421 1424 1428 1431 1434 1438 1442 1445 1449 1452 1456 1461 1465 1469 1473 1476 1480 1485 1490 1496 1501 1505 1509 1513 1516 1519 1522 1524 1527 1529 1531 1532 1533
1411 1414 1423 1427 1431 1435 1433 1437 1424 1415 1413 1407 1405 1405 1407 1410 1413 1416 1419 1423 1427 1430 1434 1438 1442 1445 1449 1453 1457 1462 1466 1471 1476 1481 1486 1491 1495 1500 1504 1508 1512 1515 1518 1520 1523 1525 1527 1529 1530
1408 1415 1421 1426 1431 1432 1425 1433 1421 1412 1403 1399 1397 1397 1399 1402 1405 1408 1411 1415 1419 1423 1426 1430 1434 1438 1442 1446 1451 1455 1460 1464 1469 1474 1479 1485 1490 1494 1499 1503 1506 1510 1513 1516 1519 1521 1523 1525 1526
1404 1413 1422 1424 1426 1420 1415 1420 1406 1396 1392 1390 1390 1390 1392 1395 1398 1400 1403 1407 1411 1416 1420 1423 1427 1431 1435 1440 1444 1449 1454 1459 1463 1468 1473 1478 1483 1488 1492 1497 1501 1505 1508 1512 1514 1517 1519 1521 1522
1394 1402 1409 1412 1415 1415 1414 1410 1394 1384 1382 1382 1383 1384 1386 1389 1391 1394 1397 1401 1405 1410 1414 1417 1421 1425 1429 1433 1438 1443 1448 1453 1458 1463 1468 1473 1477 1482 1487 1492 1496 1500 1504 1507 1509 1512 1514 1516 1518
1389 1393 1396 1405 1409 1412 1410 1402 1390 1380 1378 1378 1378 1379 1380 1382 1385 1389 1392 1396 1400 1404 1408 1412 1416 1420 1424 1428 1433 1437 1442 1447 1452 1458 1463 1468 1473 1478 1482 1487 1491 1495 1498 1502 1504 1507 1509 1511 1513
1380 1385 1394 1401 1403 1403 1401 1400 1387 1376 1373 1373 1373 1373 1374 1377 1380 1384 1388 1392 1396 1400 1404 1408 1411 1415 1419 1423 1427 1432 1437 1442 1447 1453 1458 1463 1468 1473 1477 1481 1486 1490 1493 1496 1499 1502 1504 1507 1509
1378 1382 1385 1392 1395 1395 1398 1387 1368 1364 1362 1364 1365 1366 1368 1371 1375 1380 1384 1388 1392 1396 1399 1403 1407 1411 1415 1419 1423 1427 1432 1437 1442 1448 1453 1458 1463 1468 1472 1476 1480 1484 1488 1491 1494 1497 1499 1502 1504
1368 1373 1380 1385 1390 1390 1390 1379 1355 1356 1355 1357 1359 1361 1364 1368 1372 1376 1381 1385 1388 1392 1396 1400 1404 1407 1411 1415 1419 1423 1428 1433 1438 1443 1448 1454 1458 1463 1467 1472 1475 1479 1483 1486 1489 1491 1494 1497 1499